Weather History for Appleton, MN

Change the Weather History Date:

Thursday, January 3, 2013

  Actual Average Record
Temperature  
Mean Temperature 10 °F -  
Max Temperature 21 °F 20 °F 44 °F (2007)
Min Temperature 0 °F 5 °F -13 °F (2011)
Degree Days  
Heating Degree Days 54    
Moisture  
Dew Point 7 °F    
Average Humidity 80    
Maximum Humidity 93    
Minimum Humidity 68    
Precipitation  
Precipitation 0.00 in - - ()
Sea Level Pressure  
Sea Level Pressure 30.21 in    
Wind  
Wind Speed 11 mph (WSW)    
Max Wind Speed 18 mph    
Max Gust Speed 22 mph    
Visibility 9 miles    
Events Snow    
Averages and records for this station are not official NWS values.
T = Trace of Precipitation, MM = Missing Value Source: NWS Daily Summary

Daily Weather History Graph

Daily Weather History Graph

Search for Another Location

Airport:

Trip Planner

Search our weather history database for the weather conditions in past years. The results will help you decide how hot, cold, wet, or windy it might be!

Date:

Astronomy

Jan. 03, 2013 Rise Set
Actual Time 8:03 AM CST 4:54 PM CST
Civil Twilight 7:29 AM CST 5:28 PM CST
Nautical Twilight 6:52 AM CST 6:05 PM CST
Astronomical Twilight 6:16 AM CST 6:41 PM CST
Moon 11:51 PM CST (1/3) 10:56 AM CST (1/3)
Length of Visible Light 9h 58m
Length of Day
8h 51m
Waning Gibbous, 65% of the Moon is Illuminated
Jan 3
Waning Gibbous
Jan 4
Last Quarter
Jan 11
New
Jan 18
First Quarter
Jan 26
Full

Hourly Weather History & Observations

Time (CST) Temp. Windchill Dew Point Humidity Pressure Visibility Wind Dir Wind Speed Gust Speed Precip Events Conditions
12:13 AM 10.4 °F -6.0 °F 5.0 °F 79% 30.21 in 10.0 mi NW 15.0 mph - N/A   Mostly Cloudy
12:33 AM 8.6 °F -7.7 °F 5.0 °F 85% 30.21 in 10.0 mi NW 13.8 mph 18.4 mph N/A   Overcast
1:13 AM 8.6 °F -7.7 °F 3.2 °F 79% 30.21 in 10.0 mi NW 13.8 mph - N/A   Overcast
1:53 AM 6.8 °F -11.3 °F 3.2 °F 85% 30.23 in 10.0 mi NW 16.1 mph 19.6 mph N/A   Mostly Cloudy
2:13 AM 6.8 °F -9.3 °F 1.4 °F 79% 30.24 in 10.0 mi NW 12.7 mph - N/A   Mostly Cloudy
2:33 AM 6.8 °F -10.7 °F 1.4 °F 79% 30.24 in 10.0 mi NW 15.0 mph 19.6 mph N/A   Scattered Clouds
2:53 AM 6.8 °F -10.0 °F 1.4 °F 79% 30.24 in 10.0 mi NW 13.8 mph - N/A   Mostly Cloudy
3:13 AM 6.8 °F -9.3 °F 1.4 °F 79% 30.24 in 10.0 mi NW 12.7 mph - N/A   Mostly Cloudy
3:34 AM 6.8 °F -10.7 °F 1.4 °F 79% 30.25 in 10.0 mi NW 15.0 mph - N/A   Scattered Clouds
3:53 AM 6.8 °F -11.3 °F 1.4 °F 79% 30.25 in 10.0 mi NW 16.1 mph - N/A   Clear
4:13 AM 6.8 °F -11.3 °F 1.4 °F 79% 30.26 in 10.0 mi NW 16.1 mph - N/A   Clear
4:33 AM 5.0 °F -13.0 °F 1.4 °F 85% 30.26 in 10.0 mi NW 15.0 mph 20.7 mph N/A   Clear
4:54 AM 6.8 °F -11.8 °F 1.4 °F 79% 30.27 in 10.0 mi NW 17.3 mph 21.9 mph N/A   Clear
5:13 AM 6.8 °F -12.4 °F 1.4 °F 79% 30.27 in 10.0 mi NW 18.4 mph - N/A   Clear
5:33 AM 5.0 °F -14.2 °F 1.4 °F 85% 30.27 in 10.0 mi NW 17.3 mph - N/A   Clear
5:54 AM 5.0 °F -11.6 °F -0.4 °F 78% 30.28 in 10.0 mi NW 12.7 mph - N/A   Scattered Clouds
6:13 AM 3.2 °F -13.9 °F -0.4 °F 85% 30.28 in 10.0 mi NW 12.7 mph - N/A   Mostly Cloudy
6:33 AM 3.2 °F -12.2 °F -0.4 °F 85% 30.28 in 10.0 mi NW 10.4 mph - N/A   Scattered Clouds
6:53 AM 3.2 °F -10.3 °F -0.4 °F 85% 30.28 in 10.0 mi NNW 8.1 mph - N/A   Scattered Clouds
7:14 AM 1.4 °F -11.3 °F -2.2 °F 85% 30.29 in 10.0 mi NW 6.9 mph - N/A   Clear
7:33 AM 1.4 °F -9.9 °F -2.2 °F 85% 30.29 in 10.0 mi West 5.8 mph - N/A   Clear
7:53 AM -0.4 °F -12.0 °F -4.0 °F 85% 30.29 in 10.0 mi West 5.8 mph - N/A   Clear
8:14 AM -0.4 °F -12.0 °F -4.0 °F 85% 30.29 in 10.0 mi West 5.8 mph - N/A   Clear
8:33 AM -0.4 °F -8.3 °F -4.0 °F 85% 30.29 in 7.0 mi West 3.5 mph - N/A Snow Light Snow
8:54 AM 3.2 °F -10.3 °F -0.4 °F 85% 30.30 in 7.0 mi West 8.1 mph - N/A Snow Light Snow
9:13 AM 3.2 °F -4.2 °F -0.4 °F 85% 30.30 in 2.5 mi West 3.5 mph - N/A Snow Light Snow
9:34 AM 5.0 °F -2.1 °F -0.4 °F 78% 30.30 in 1.8 mi WSW 3.5 mph - N/A Snow Light Snow
9:53 AM 6.8 °F -0.1 °F 1.4 °F 79% 30.30 in 3.0 mi West 3.5 mph - N/A Snow Light Snow
10:13 AM 6.8 °F - 1.4 °F 79% 30.30 in 4.0 mi Calm Calm - N/A Snow Light Snow
10:33 AM 8.6 °F 0.1 °F 1.4 °F 73% 30.30 in 4.0 mi WSW 4.6 mph - N/A Snow Light Snow
10:53 AM 10.4 °F 2.2 °F 3.2 °F 73% 30.30 in 10.0 mi SW 4.6 mph - N/A Snow Light Snow
11:14 AM 10.4 °F 2.2 °F 5.0 °F 79% 30.29 in 5.0 mi SW 4.6 mph - N/A Snow Light Snow
11:33 AM 12.2 °F 4.3 °F 6.8 °F 79% 30.28 in 10.0 mi SW 4.6 mph - N/A Snow Light Snow
11:53 AM 12.2 °F 4.3 °F 6.8 °F 79% 30.27 in 7.0 mi SSW 4.6 mph - N/A Snow Light Snow
12:13 PM 14.0 °F 8.2 °F 6.8 °F 73% 30.26 in 10.0 mi SSW 3.5 mph - N/A Snow Light Snow
12:33 PM 15.8 °F 8.6 °F 8.6 °F 73% 30.24 in 10.0 mi SW 4.6 mph - N/A Snow Light Snow
12:53 PM 15.8 °F 7.2 °F 8.6 °F 73% 30.23 in 10.0 mi South 5.8 mph - N/A Snow Light Snow
1:14 PM 17.6 °F 9.3 °F 10.4 °F 73% 30.22 in 10.0 mi South 5.8 mph - N/A   Overcast
1:33 PM 19.4 °F 11.5 °F 12.2 °F 74% 30.21 in 10.0 mi SSW 5.8 mph - N/A   Scattered Clouds
1:53 PM 19.4 °F 14.3 °F 12.2 °F 74% 30.22 in 10.0 mi South 3.5 mph - N/A   Clear
2:14 PM 21.2 °F 13.6 °F 12.2 °F 68% 30.21 in 10.0 mi South 5.8 mph - N/A   Clear
2:33 PM 21.2 °F 11.7 °F 12.2 °F 68% 30.20 in 10.0 mi SSW 8.1 mph - N/A   Clear
2:53 PM 21.2 °F 11.7 °F 14.0 °F 74% 30.21 in 10.0 mi SSW 8.1 mph - N/A   Clear
3:13 PM 21.2 °F 10.9 °F 14.0 °F 74% 30.20 in 10.0 mi SW 9.2 mph - N/A   Clear
3:33 PM 21.2 °F 10.9 °F 14.0 °F 74% 30.20 in 10.0 mi SW 9.2 mph - N/A   Clear
3:53 PM 21.2 °F 11.7 °F 15.8 °F 80% 30.20 in 10.0 mi SW 8.1 mph - N/A   Clear
4:13 PM 19.4 °F 9.5 °F 14.0 °F 80% 30.20 in 10.0 mi SW 8.1 mph - N/A   Clear
4:33 PM 19.4 °F 8.6 °F 14.0 °F 80% 30.20 in 10.0 mi SW 9.2 mph - N/A   Clear
4:53 PM 19.4 °F 8.6 °F 14.0 °F 80% 30.19 in 10.0 mi SSW 9.2 mph - N/A   Clear
5:13 PM 17.6 °F 6.4 °F 12.2 °F 79% 30.18 in 10.0 mi SW 9.2 mph - N/A   Clear
5:33 PM 17.6 °F 7.3 °F 12.2 °F 79% 30.17 in 10.0 mi SW 8.1 mph - N/A   Clear
5:53 PM 15.8 °F 6.1 °F 12.2 °F 86% 30.17 in 10.0 mi SW 6.9 mph - N/A   Clear
6:14 PM 15.8 °F 5.1 °F 12.2 °F 86% 30.16 in 10.0 mi SW 8.1 mph - N/A   Clear
6:33 PM 15.8 °F 4.2 °F 12.2 °F 86% 30.15 in 10.0 mi SW 9.2 mph - N/A   Clear
6:53 PM 15.8 °F 4.2 °F 12.2 °F 86% 30.14 in 10.0 mi SW 9.2 mph - N/A   Clear
7:14 PM 17.6 °F 6.4 °F 12.2 °F 79% 30.13 in 10.0 mi SW 9.2 mph - N/A   Clear
7:34 PM 17.6 °F 5.7 °F 12.2 °F 79% 30.12 in 10.0 mi SW 10.4 mph - N/A   Clear
7:53 PM 17.6 °F 5.7 °F 14.0 °F 86% 30.12 in 10.0 mi SW 10.4 mph - N/A   Clear
8:13 PM 17.6 °F 6.4 °F 14.0 °F 86% 30.11 in 10.0 mi SW 9.2 mph - N/A   Clear
8:33 PM 17.6 °F 6.4 °F 14.0 °F 86% 30.10 in 10.0 mi SW 9.2 mph - N/A   Clear
8:53 PM 17.6 °F 5.7 °F 14.0 °F 86% 30.08 in 10.0 mi SW 10.4 mph - N/A   Clear
9:14 PM 17.6 °F 5.7 °F 15.8 °F 93% 30.08 in 10.0 mi SW 10.4 mph - N/A   Clear
9:33 PM 19.4 °F 8.6 °F 15.8 °F 86% 30.08 in 10.0 mi SW 9.2 mph - N/A   Clear
9:53 PM 19.4 °F 9.5 °F 15.8 °F 86% 30.08 in 10.0 mi SW 8.1 mph - N/A   Clear
10:13 PM 19.4 °F 7.9 °F 14.0 °F 80% 30.07 in 10.0 mi SW 10.4 mph - N/A   Clear
10:33 PM 19.4 °F 6.6 °F 15.8 °F 86% 30.06 in 10.0 mi SW 12.7 mph - N/A   Clear
10:53 PM 21.2 °F 8.3 °F 15.8 °F 80% 30.04 in 10.0 mi SW 13.8 mph - N/A   Clear
11:13 PM 21.2 °F 9.5 °F 15.8 °F 80% 30.04 in 10.0 mi SW 11.5 mph - N/A   Clear
11:34 PM 21.2 °F 10.1 °F 15.8 °F 80% 30.04 in 10.0 mi SW 10.4 mph - N/A   Clear
11:53 PM 21.2 °F 9.5 °F 15.8 °F 80% 30.03 in 10.0 mi SW 11.5 mph - N/A   Clear